,,Stat5,,Stat1,,Stat2,,Stat3,,Stat4,,Wind1,,Wind1,
time,status,PA1M_AVG,status,PR1M_SUM,status,RH1M_AVG,status,SR1M_AVG,status,TA1M_AVG,status,W1dAve1m,status,W1sAve1m,
2001-06-25, 00:00:00,VALID,918.336,VALID,0,VALID,96.8085,VALID,-0.0509425,VALID,18.5059,VALID,114,VALID,1.19017,
2001-06-25, 00:01:00,VALID,918.336,VALID,0,VALID,96.7793,VALID,-0.0339617,VALID,18.5123,VALID,111,VALID,1.30448,
2001-06-25, 00:02:00,VALID,918.339,VALID,0,VALID,96.7462,VALID,-0.0169808,VALID,18.5386,VALID,105,VALID,1.23088,
2001-06-25, 00:03:00,VALID,918.323,VALID,0,VALID,96.6979,VALID,-0.0339617,VALID,18.5474,VALID,100,VALID,1.17869,
2001-06-25, 00:04:00,VALID,918.337,VALID,0,VALID,96.5097,VALID,-0.0339617,VALID,18.5509,VALID,98,VALID,0.775699,
2001-06-25, 00:05:00,VALID,918.358,VALID,0,VALID,96.5567,VALID,-0.0509425,VALID,18.5677,VALID,113,VALID,1.05363,
2001-06-25, 00:06:00,VALID,918.373,VALID,0,VALID,96.441,VALID,0,VALID,18.5804,VALID,109,VALID,1.09623,
2001-06-25, 00:07:00,VALID,918.371,VALID,0,VALID,96.4487,VALID,-0.0169808,VALID,18.5668,VALID,114,VALID,1.15996,
2001-06-25, 00:08:00,VALID,918.393,VALID,0,VALID,96.3622,VALID,-0.0169808,VALID,18.5832,VALID,110,VALID,1.03265,
2001-06-25, 00:09:00,VALID,918.388,VALID,0,VALID,96.4627,VALID,-0.0509425,VALID,18.5931,VALID,114,VALID,1.09196,
2001-06-25, 00:10:00,VALID,918.402,VALID,0,VALID,96.483,VALID,-0.0679233,VALID,18.6256,VALID,120,VALID,0.92793,
2001-06-25, 00:11:00,VALID,918.409,VALID,0,VALID,96.2503,VALID,-0.0679233,VALID,18.6484,VALID,120,VALID,0.460069,
2001-06-25, 00:12:00,VALID,918.417,VALID,0,VALID,96.0634,VALID,-0.0679233,VALID,18.6517,VALID,135,VALID,0.744575,
2001-06-25, 00:13:00,VALID,918.416,VALID,0,VALID,96.2032,VALID,-0.0849042,VALID,18.648,VALID,130,VALID,0.811699,
2001-06-25, 00:14:00,VALID,918.414,VALID,0,VALID,96.1308,VALID,-0.0509425,VALID,18.6872,VALID,123,VALID,0.763158,
2001-06-25, 00:15:00,VALID,918.4,VALID,0,VALID,96.146,VALID,-0.0339617,VALID,18.69,VALID,116,VALID,1.17743,
2001-06-25, 00:16:00,VALID,918.418,VALID,0,VALID,96.1002,VALID,-0.101885,VALID,18.7225,VALID,117,VALID,1.04878,
2001-06-25, 00:17:00,VALID,918.435,VALID,0,VALID,96.099,VALID,-0.0849042,VALID,18.758,VALID,115,VALID,1.0829,
2001-06-25, 00:18:00,VALID,918.443,VALID,0,VALID,95.9591,VALID,-0.0679233,VALID,18.7965,VALID,107,VALID,0.957348,
2001-06-25, 00:19:00,VALID,918.458,VALID,0,VALID,95.6793,VALID,-0.0679233,VALID,18.8194,VALID,97,VALID,0.825247,
2001-06-25, 00:20:00,VALID,918.466,VALID,0,VALID,95.603,VALID,-0.0679233,VALID,18.8224,VALID,95,VALID,0.791066,
2001-06-25, 00:21:00,VALID,918.457,VALID,0,VALID,95.1961,VALID,-0.0509425,VALID,18.8097,VALID,84,VALID,0.80649,
2001-06-25, 00:22:00,VALID,918.451,VALID,0,VALID,95.2673,VALID,-0.0339617,VALID,18.7806,VALID,88,VALID,0.897382,
2001-06-25, 00:23:00,VALID,918.426,VALID,0,VALID,95.2279,VALID,-0.0679233,VALID,18.7481,VALID,89,VALID,0.990132,
2001-06-25, 00:24:00,VALID,918.423,VALID,0,VALID,95.5153,VALID,-0.0339617,VALID,18.7285,VALID,97,VALID,1.03826,
2001-06-25, 00:25:00,VALID,918.415,VALID,0,VALID,95.6069,VALID,-0.0339617,VALID,18.719,VALID,104,VALID,0.817508,
2001-06-25, 00:26:00,VALID,918.412,VALID,0,VALID,95.7048,VALID,-0.0169808,VALID,18.6992,VALID,121,VALID,0.870175,
2001-06-25, 00:27:00,VALID,918.398,VALID,0,VALID,96.1282,VALID,-0.0509425,VALID,18.7056,VALID,115,VALID,1.27405,
2001-06-25, 00:28:00,VALID,918.379,VALID,0,VALID,96.0379,VALID,-0.0169808,VALID,18.7578,VALID,107,VALID,1.25296,
2001-06-25, 00:29:00,VALID,918.349,VALID,0,VALID,95.7353,VALID,-0.0169808,VALID,18.7476,VALID,103,VALID,1.2717,
2001-06-25, 00:30:00,VALID,918.342,VALID,0,VALID,95.2737,VALID,-0.0169808,VALID,18.7188,VALID,105,VALID,1.00369,
2001-06-25, 00:31:00,VALID,918.35,VALID,0,VALID,95.4301,VALID,-0.0339617,VALID,18.677,VALID,98,VALID,1.01254,
2001-06-25, 00:32:00,VALID,918.353,VALID,0,VALID,95.9782,VALID,-0.0169808,VALID,18.6447,VALID,108,VALID,1.21052,
2001-06-25, 00:33:00,VALID,918.347,VALID,0,VALID,96.2172,VALID,-0.0679233,VALID,18.6291,VALID,109,VALID,1.09263,
2001-06-25, 00:34:00,VALID,918.338,VALID,0,VALID,96.174,VALID,-0.0849042,VALID,18.5774,VALID,109,VALID,0.931027,
2001-06-25, 00:35:00,VALID,918.331,VALID,0,VALID,96.4194,VALID,-0.0339617,VALID,18.5313,VALID,112,VALID,0.787829,
2001-06-25, 00:36:00,VALID,918.319,VALID,0,VALID,96.7259,VALID,-0.0339617,VALID,18.5183,VALID,117,VALID,1.10296,
2001-06-25, 00:37:00,VALID,918.316,VALID,0,VALID,96.8187,VALID,0,VALID,18.5144,VALID,115,VALID,1.11699,
2001-06-25, 00:38:00,VALID,918.326,VALID,0,VALID,96.923,VALID,-0.0679233,VALID,18.528,VALID,111,VALID,1.04893,
2001-06-25, 00:39:00,VALID,918.312,VALID,0,VALID,96.8034,VALID,-0.0169808,VALID,18.5511,VALID,110,VALID,0.860431,
2001-06-25, 00:40:00,VALID,918.322,VALID,0,VALID,96.9688,VALID,-0.0679233,VALID,18.5446,VALID,104,VALID,0.749599,
2001-06-25, 00:41:00,VALID,918.315,VALID,0,VALID,96.7068,VALID,-0.0509425,VALID,18.5449,VALID,119,VALID,0.642027,
2001-06-25, 00:42:00,VALID,918.309,VALID,0,VALID,96.8874,VALID,-0.0509425,VALID,18.5414,VALID,94,VALID,0.784655,
2001-06-25, 00:43:00,VALID,918.303,VALID,0,VALID,96.5771,VALID,-0.0679233,VALID,18.5483,VALID,98,VALID,0.929688,
2001-06-25, 00:44:00,VALID,918.288,VALID,0,VALID,96.661,VALID,-0.0339617,VALID,18.5186,VALID,117,VALID,0.96224,
2001-06-25, 00:45:00,VALID,918.283,VALID,0,VALID,96.7081,VALID,-0.0679233,VALID,18.5153,VALID,119,VALID,1.04514,
2001-06-25, 00:46:00,VALID,918.277,VALID,0,VALID,96.7462,VALID,-0.0339617,VALID,18.5089,VALID,124,VALID,1.07986,
2001-06-25, 00:47:00,VALID,918.271,VALID,0,VALID,96.8823,VALID,-0.0339617,VALID,18.5086,VALID,119,VALID,1.18349,
2001-06-25, 00:48:00,VALID,918.274,VALID,0,VALID,96.7869,VALID,-0.0339617,VALID,18.5091,VALID,119,VALID,0.790502,
2001-06-25, 00:49:00,VALID,918.27,VALID,0,VALID,96.7577,VALID,-0.0339617,VALID,18.486,VALID,134,VALID,0.917019,
2001-06-25, 00:50:00,VALID,918.271,VALID,0,VALID,96.9077,VALID,-0.0169808,VALID,18.4962,VALID,137,VALID,0.638091,
2001-06-25, 00:51:00,VALID,918.255,VALID,0,VALID,96.9789,VALID,0,VALID,18.4893,VALID,137,VALID,0.98192,
2001-06-25, 00:52:00,VALID,918.229,VALID,0,VALID,97.1188,VALID,-0.0509425,VALID,18.5188,VALID,119,VALID,1.19038,
2001-06-25, 00:53:00,VALID,918.208,VALID,0,VALID,97.0896,VALID,-0.0169808,VALID,18.5474,VALID,113,VALID,0.983319,
2001-06-25, 00:54:00,VALID,918.182,VALID,0,VALID,96.9891,VALID,-0.0169808,VALID,18.5735,VALID,104,VALID,1.07717,
2001-06-25, 00:55:00,VALID,918.151,VALID,0,VALID,96.6089,VALID,-0.0169808,VALID,18.5998,VALID,93,VALID,0.967188,
2001-06-25, 00:56:00,VALID,918.151,VALID,0,VALID,96.3991,VALID,-0.0509425,VALID,18.606,VALID,108,VALID,1.00021,
2001-06-25, 00:57:00,VALID,918.146,VALID,0,VALID,96.263,VALID,-0.0169808,VALID,18.6028,VALID,101,VALID,0.886308,
2001-06-25, 00:58:00,VALID,918.143,VALID,0,VALID,96.0456,VALID,-0.0339617,VALID,18.5829,VALID,105,VALID,0.709961,
2001-06-25, 00:59:00,VALID,918.129,VALID,0,VALID,96.0494,VALID,-0.0339617,VALID,18.5598,VALID,109,VALID,0.576522,
2001-06-25, 01:00:00,VALID,918.109,VALID,0,VALID,96.1511,VALID,-0.0849042,VALID,18.5442,VALID,140,VALID,1.09933,
2001-06-25, 01:01:00,VALID,918.093,VALID,0,VALID,96.2655,VALID,-0.0169808,VALID,18.5347,VALID,132,VALID,1.06797,
2001-06-25, 01:02:00,VALID,918.052,VALID,0,VALID,96.4156,VALID,-0.0679233,VALID,18.5347,VALID,136,VALID,0.953776,
2001-06-25, 01:03:00,VALID,918.041,VALID,0,VALID,96.3889,VALID,-0.0169808,VALID,18.5349,VALID,130,VALID,0.98763,
2001-06-25, 01:04:00,VALID,918.013,VALID,0,VALID,96.3444,VALID,-0.0169808,VALID,18.5253,VALID,130,VALID,0.850962,
2001-06-25, 01:05:00,VALID,917.988,VALID,0,VALID,96.3965,VALID,-0.0509425,VALID,18.5349,VALID,128,VALID,0.557977,
2001-06-25, 01:06:00,VALID,917.991,VALID,0,VALID,96.2655,VALID,-0.0169808,VALID,18.5188,VALID,116,VALID,0.960732,
2001-06-25, 01:07:00,VALID,917.986,VALID,0,VALID,96.427,VALID,-0.0169808,VALID,18.5248,VALID,126,VALID,0.929688,
2001-06-25, 01:08:00,VALID,917.991,VALID,0,VALID,96.4029,VALID,0,VALID,18.5315,VALID,124,VALID,0.665148,
2001-06-25, 01:09:00,VALID,918.003,VALID,0,VALID,96.3914,VALID,-0.0169808,VALID,18.5548,VALID,126,VALID,0.899704,
2001-06-25, 01:10:00,VALID,918.01,VALID,0,VALID,96.469,VALID,-0.0339617,VALID,18.5606,VALID,125,VALID,0.622533,
2001-06-25, 01:11:00,VALID,918.01,VALID,0,VALID,96.2986,VALID,-0.0339617,VALID,18.5672,VALID,108,VALID,0.498998,
2001-06-25, 01:12:00,VALID,918.018,VALID,0,VALID,96.1091,VALID,-0.0339617,VALID,18.5474,VALID,98,VALID,0.526843,
2001-06-25, 01:13:00,VALID,918.012,VALID,0,VALID,96.1765,VALID,-0.0679233,VALID,18.5543,VALID,96,VALID,0.523226,
2001-06-25, 01:14:00,VALID,917.997,VALID,0,VALID,96.1333,VALID,-0.0339617,VALID,18.5543,VALID,88,VALID,0.735197,
2001-06-25, 01:15:00,VALID,917.981,VALID,0,VALID,96.2757,VALID,-0.101885,VALID,18.5613,VALID,97,VALID,0.670473,
2001-06-25, 01:16:00,VALID,917.958,VALID,0,VALID,96.2071,VALID,-0.0169808,VALID,18.5509,VALID,113,VALID,0.758013,
2001-06-25, 01:17:00,VALID,917.95,VALID,0,VALID,96.3317,VALID,-0.0339617,VALID,18.5509,VALID,111,VALID,0.69761,
2001-06-25, 01:18:00,VALID,917.936,VALID,0,VALID,96.1816,VALID,-0.0509425,VALID,18.5377,VALID,118,VALID,0.509252,
2001-06-25, 01:19:00,VALID,917.932,VALID,0,VALID,96.2325,VALID,-0.0169808,VALID,18.5086,VALID,125,VALID,0.762247,
2001-06-25, 01:20:00,VALID,917.923,VALID,0,VALID,96.2236,VALID,-0.0169808,VALID,18.486,VALID,124,VALID,0.737413,
2001-06-25, 01:21:00,VALID,917.889,VALID,0,VALID,96.3482,VALID,-0.0169808,VALID,18.4865,VALID,133,VALID,0.756727,
2001-06-25, 01:22:00,VALID,917.873,VALID,0,VALID,96.1765,VALID,-0.0339617,VALID,18.4408,VALID,103,VALID,0.395559,
2001-06-25, 01:23:00,VALID,917.885,VALID,0,VALID,96.1104,VALID,-0.0679233,VALID,18.3894,VALID,104,VALID,0.304899,
2001-06-25, 01:24:00,VALID,917.887,VALID,0,VALID,96.0023,VALID,-0.0509425,VALID,18.3476,VALID,106,VALID,0.115179,
2001-06-25, 01:25:00,VALID,917.866,VALID,0,VALID,96.0125,VALID,-0.0679233,VALID,18.2861,VALID,106,VALID,0.206027,
2001-06-25, 01:26:00,VALID,917.858,VALID,0,VALID,96.2541,VALID,-0.0849042,VALID,18.2605,VALID,118,VALID,0.412829,
2001-06-25, 01:27:00,VALID,917.853,VALID,0,VALID,96.4321,VALID,-0.0339617,VALID,18.2243,VALID,131,VALID,0.302484,
2001-06-25, 01:28:00,VALID,917.829,VALID,0,VALID,96.6165,VALID,-0.0339617,VALID,18.2021,VALID,141,VALID,0.698828,
2001-06-25, 01:29:00,VALID,917.835,VALID,0,VALID,97.148,VALID,-0.0679233,VALID,18.2083,VALID,148,VALID,0.827919,
2001-06-25, 01:30:00,VALID,917.839,VALID,0,VALID,97.3642,VALID,-0.0169808,VALID,18.2478,VALID,146,VALID,0.727196,
2001-06-25, 01:31:00,VALID,917.835,VALID,0,VALID,97.3401,VALID,-0.0509425,VALID,18.2379,VALID,126,VALID,0.229768,
2001-06-25, 01:32:00,VALID,917.845,VALID,0,VALID,97.2218,VALID,-0.0509425,VALID,18.215,VALID,131,VALID,0.245994,
2001-06-25, 01:33:00,VALID,917.83,VALID,0,VALID,97.2167,VALID,-0.0509425,VALID,18.1862,VALID,131,VALID,0.49359,
2001-06-25, 01:34:00,VALID,917.835,VALID,0,VALID,97.5092,VALID,-0.0339617,VALID,18.2192,VALID,140,VALID,0.651116,
2001-06-25, 01:35:00,VALID,917.852,VALID,0,VALID,97.7635,VALID,-0.0509425,VALID,18.2374,VALID,123,VALID,0.676172,
2001-06-25, 01:36:00,VALID,917.859,VALID,0,VALID,97.705,VALID,-0.0679233,VALID,18.2768,VALID,119,VALID,0.526693,
2001-06-25, 01:37:00,VALID,917.865,VALID,0,VALID,97.6338,VALID,-0.0849042,VALID,18.2932,VALID,115,VALID,0.539063,
2001-06-25, 01:38:00,VALID,917.839,VALID,0,VALID,97.616,VALID,-0.101885,VALID,18.2967,VALID,110,VALID,0.507813,
2001-06-25, 01:39:00,VALID,917.827,VALID,0,VALID,97.5003,VALID,-0.0509425,VALID,18.2639,VALID,102,VALID,0.661801,
2001-06-25, 01:40:00,VALID,917.809,VALID,0,VALID,97.4113,VALID,-0.0679233,VALID,18.2443,VALID,99,VALID,0.836993,
2001-06-25, 01:41:00,VALID,917.793,VALID,0,VALID,97.5982,VALID,-0.0169808,VALID,18.2445,VALID,104,VALID,1.00338,
2001-06-25, 01:42:00,VALID,917.791,VALID,0,VALID,97.7559,VALID,0.0169808,VALID,18.2692,VALID,99,VALID,0.967411,
2001-06-25, 01:43:00,VALID,917.785,VALID,0,VALID,97.5333,VALID,0.0339617,VALID,18.2526,VALID,91,VALID,0.736431,
2001-06-25, 01:44:00,VALID,917.784,VALID,0,VALID,97.307,VALID,0.0339617,VALID,18.2171,VALID,88,VALID,0.758024,
2001-06-25, 01:45:00,VALID,917.776,VALID,0,VALID,97.0374,VALID,0.0339617,VALID,18.1682,VALID,85,VALID,0.750572,
2001-06-25, 01:46:00,VALID,917.764,VALID,0,VALID,96.9446,VALID,0.0509425,VALID,18.1368,VALID,82,VALID,0.874805,
2001-06-25, 01:47:00,VALID,917.759,VALID,0,VALID,97.3248,VALID,0.0339617,VALID,18.1304,VALID,92,VALID,0.85259,
2001-06-25, 01:48:00,VALID,917.747,VALID,0,VALID,97.4799,VALID,0.0849042,VALID,18.1461,VALID,96,VALID,0.82278,
2001-06-25, 01:49:00,VALID,917.733,VALID,0,VALID,97.6541,VALID,0.0679233,VALID,18.1687,VALID,104,VALID,1.06445,
2001-06-25, 01:50:00,VALID,917.714,VALID,0,VALID,97.5511,VALID,0.0679233,VALID,18.1756,VALID,109,VALID,0.991386,
2001-06-25, 01:51:00,VALID,917.717,VALID,0,VALID,97.4914,VALID,0.0679233,VALID,18.1528,VALID,116,VALID,0.93125,
2001-06-25, 01:52:00,VALID,917.7,VALID,0,VALID,97.5524,VALID,0.0679233,VALID,18.1366,VALID,112,VALID,0.807617,
2001-06-25, 01:53:00,VALID,917.681,VALID,0,VALID,97.5689,VALID,0.0509425,VALID,18.1304,VALID,107,VALID,0.815538,
2001-06-25, 01:54:00,VALID,917.663,VALID,0,VALID,97.5562,VALID,0.0169808,VALID,18.0912,VALID,96,VALID,0.670356,
2001-06-25, 01:55:00,VALID,917.668,VALID,0,VALID,97.6491,VALID,0.0339617,VALID,18.0621,VALID,89,VALID,0.702324,
2001-06-25, 01:56:00,VALID,917.673,VALID,0,VALID,97.7355,VALID,0,VALID,18.0368,VALID,92,VALID,0.698396,
2001-06-25, 01:57:00,VALID,917.679,VALID,0,VALID,97.9898,VALID,-0.0679233,VALID,18.0448,VALID,100,VALID,0.835938,
2001-06-25, 01:58:00,VALID,917.694,VALID,0,VALID,98.0051,VALID,-0.101885,VALID,18.0674,VALID,96,VALID,0.760346,
2001-06-25, 01:59:00,VALID,917.715,VALID,0,VALID,98.1933,VALID,-0.0679233,VALID,18.0709,VALID,105,VALID,0.969401,
2001-06-25, 02:00:00,VALID,917.735,VALID,0,VALID,98.2086,VALID,-0.0679233,VALID,18.0835,VALID,100,VALID,1.03167,
2001-06-25, 02:01:00,VALID,917.728,VALID,0,VALID,98.3243,VALID,-0.0679233,VALID,18.1061,VALID,105,VALID,1.15296,
2001-06-25, 02:02:00,VALID,917.72,VALID,0,VALID,98.1908,VALID,-0.0679233,VALID,18.0898,VALID,88,VALID,0.736178,
2001-06-25, 02:03:00,VALID,917.722,VALID,0,VALID,98.2187,VALID,-0.0679233,VALID,18.0803,VALID,111,VALID,0.949519,
2001-06-25, 02:04:00,VALID,917.709,VALID,0,VALID,98.248,VALID,-0.0849042,VALID,18.0674,VALID,111,VALID,0.953336,
2001-06-25, 02:05:00,VALID,917.703,VALID,0,VALID,98.234,VALID,-0.0849042,VALID,18.0575,VALID,115,VALID,0.935033,
2001-06-25, 02:06:00,VALID,917.692,VALID,0,VALID,98.2645,VALID,-0.101885,VALID,18.0582,VALID,103,VALID,0.94351,
2001-06-25, 02:07:00,VALID,917.681,VALID,0,VALID,98.145,VALID,-0.0849042,VALID,18.0284,VALID,89,VALID,0.811699,
2001-06-25, 02:08:00,VALID,917.683,VALID,0,VALID,97.8805,VALID,-0.0679233,VALID,17.9503,VALID,86,VALID,0.690717,
2001-06-25, 02:09:00,VALID,917.69,VALID,0,VALID,97.9352,VALID,-0.0679233,VALID,17.935,VALID,93,VALID,0.788446,
2001-06-25, 02:10:00,VALID,917.695,VALID,0,VALID,98.117,VALID,-0.0679233,VALID,17.9447,VALID,108,VALID,0.935811,
2001-06-25, 02:11:00,VALID,917.692,VALID,0,VALID,98.2543,VALID,-0.101885,VALID,17.9671,VALID,113,VALID,0.923394,
2001-06-25, 02:12:00,VALID,917.697,VALID,0,VALID,98.2467,VALID,-0.101885,VALID,17.977,VALID,115,VALID,1,
2001-06-25, 02:13:00,VALID,917.699,VALID,0,VALID,98.0534,VALID,-0.0169808,VALID,17.9669,VALID,121,VALID,0.659539,
2001-06-25, 02:14:00,VALID,917.69,VALID,0,VALID,98.0598,VALID,-0.0849042,VALID,17.9442,VALID,104,VALID,0.95777,
2001-06-25, 02:15:00,VALID,917.705,VALID,0,VALID,98.1005,VALID,-0.101885,VALID,17.9473,VALID,99,VALID,0.99442,
2001-06-25, 02:16:00,VALID,917.72,VALID,0,VALID,98.0763,VALID,-0.0849042,VALID,17.9703,VALID,104,VALID,0.920759,
2001-06-25, 02:17:00,VALID,917.727,VALID,0,VALID,98.0852,VALID,-0.101885,VALID,17.9539,VALID,98,VALID,0.665296,
2001-06-25, 02:18:00,VALID,917.73,VALID,0,VALID,97.8907,VALID,-0.101885,VALID,17.9382,VALID,109,VALID,0.879207,
2001-06-25, 02:19:00,VALID,917.718,VALID,0,VALID,97.8945,VALID,-0.0679233,VALID,17.9253,VALID,116,VALID,0.975195,
2001-06-25, 02:20:00,VALID,917.711,VALID,0,VALID,98.042,VALID,-0.0849042,VALID,17.9223,VALID,115,VALID,1.1435,
2001-06-25, 02:21:00,VALID,917.692,VALID,0,VALID,98.145,VALID,-0.101885,VALID,17.938,VALID,110,VALID,1.09227,
2001-06-25, 02:22:00,VALID,917.689,VALID,0,VALID,98.1501,VALID,-0.0849042,VALID,17.971,VALID,116,VALID,1.17268,
2001-06-25, 02:23:00,VALID,917.68,VALID,0,VALID,98.1272,VALID,-0.101885,VALID,17.9701,VALID,119,VALID,0.929688,
2001-06-25, 02:24:00,VALID,917.686,VALID,0,VALID,97.911,VALID,-0.101885,VALID,17.9675,VALID,117,VALID,0.757212,
2001-06-25, 02:25:00,VALID,917.677,VALID,0,VALID,97.794,VALID,-0.0679233,VALID,17.9482,VALID,126,VALID,0.698214,
2001-06-25, 02:26:00,VALID,917.663,VALID,0,VALID,97.9034,VALID,-0.101885,VALID,17.9316,VALID,112,VALID,0.863672,
2001-06-25, 02:27:00,VALID,917.645,VALID,0,VALID,98.014,VALID,-0.101885,VALID,17.9415,VALID,110,VALID,0.898003,
2001-06-25, 02:28:00,VALID,917.61,VALID,0,VALID,98.1628,VALID,-0.0849042,VALID,17.9899,VALID,105,VALID,1.01997,
2001-06-25, 02:29:00,VALID,917.577,VALID,0,VALID,98.0649,VALID,-0.101885,VALID,18.0026,VALID,98,VALID,0.996199,
2001-06-25, 02:30:00,VALID,917.558,VALID,0,VALID,98.0318,VALID,-0.0849042,VALID,18.0097,VALID,94,VALID,0.905633,
2001-06-25, 02:31:00,VALID,917.549,VALID,0,VALID,97.7533,VALID,-0.0849042,VALID,17.9738,VALID,89,VALID,0.826014,
2001-06-25, 02:32:00,VALID,917.544,VALID,0,VALID,97.719,VALID,-0.101885,VALID,17.9417,VALID,92,VALID,1,
2001-06-25, 02:33:00,VALID,917.557,VALID,0,VALID,97.7915,VALID,-0.101885,VALID,17.932,VALID,94,VALID,1.00647,
2001-06-25, 02:34:00,VALID,917.563,VALID,0,VALID,97.7393,VALID,-0.0509425,VALID,17.9124,VALID,98,VALID,0.747738,
2001-06-25, 02:35:00,VALID,917.575,VALID,0,VALID,97.5079,VALID,-0.101885,VALID,17.8607,VALID,100,VALID,0.479307,
2001-06-25, 02:36:00,VALID,917.586,VALID,0,VALID,97.4558,VALID,-0.101885,VALID,17.7996,VALID,108,VALID,0.574314,
2001-06-25, 02:37:00,VALID,917.588,VALID,0,VALID,97.761,VALID,-0.0849042,VALID,17.7835,VALID,107,VALID,0.807617,
2001-06-25, 02:38:00,VALID,917.58,VALID,0,VALID,98.0941,VALID,-0.101885,VALID,17.7996,VALID,105,VALID,0.873561,
2001-06-25, 02:39:00,VALID,917.57,VALID,0,VALID,98.3128,VALID,-0.101885,VALID,17.8317,VALID,112,VALID,0.868215,
2001-06-25, 02:40:00,VALID,917.554,VALID,0,VALID,98.3891,VALID,-0.135847,VALID,17.855,VALID,115,VALID,1.1791,
2001-06-25, 02:41:00,VALID,917.56,VALID,0,VALID,98.4006,VALID,-0.0509425,VALID,17.8698,VALID,117,VALID,1.04868,
2001-06-25, 02:42:00,VALID,917.579,VALID,0,VALID,98.3344,VALID,0,VALID,17.8755,VALID,119,VALID,0.977455,
2001-06-25, 02:43:00,VALID,917.57,VALID,0,VALID,98.2149,VALID,0.0339617,VALID,17.8661,VALID,122,VALID,0.938086,
2001-06-25, 02:44:00,VALID,917.578,VALID,0,VALID,98.2289,VALID,0,VALID,17.8467,VALID,123,VALID,1.13281,
2001-06-25, 02:45:00,VALID,917.573,VALID,0,VALID,98.276,VALID,0.0339617,VALID,17.8534,VALID,116,VALID,1.24262,
2001-06-25, 02:46:00,VALID,917.554,VALID,0,VALID,98.3383,VALID,0,VALID,17.8529,VALID,111,VALID,1.19391,
2001-06-25, 02:47:00,VALID,917.544,VALID,0,VALID,98.3853,VALID,0.0169808,VALID,17.8725,VALID,107,VALID,1.05695,
2001-06-25, 02:48:00,VALID,917.546,VALID,0,VALID,98.192,VALID,-0.0169808,VALID,17.8665,VALID,99,VALID,0.804071,
2001-06-25, 02:49:00,VALID,917.56,VALID,0,VALID,97.9911,VALID,0.0339617,VALID,17.7918,VALID,97,VALID,0.638091,
2001-06-25, 02:50:00,VALID,917.568,VALID,0,VALID,98.0344,VALID,0.0169808,VALID,17.769,VALID,98,VALID,0.628472,
2001-06-25, 02:51:00,VALID,917.574,VALID,0,VALID,98.0636,VALID,0,VALID,17.7503,VALID,95,VALID,0.646326,
2001-06-25, 02:52:00,VALID,917.571,VALID,0,VALID,98.1081,VALID,0.0339617,VALID,17.7305,VALID,95,VALID,0.688322,
2001-06-25, 02:53:00,VALID,917.559,VALID,0,VALID,98.2531,VALID,0.0169808,VALID,17.7436,VALID,96,VALID,0.802083,
2001-06-25, 02:54:00,VALID,917.557,VALID,0,VALID,98.2849,VALID,0.0339617,VALID,17.7275,VALID,96,VALID,0.80629,
2001-06-25, 02:55:00,VALID,917.542,VALID,0,VALID,98.4527,VALID,0.0339617,VALID,17.7402,VALID,96,VALID,0.857686,
2001-06-25, 02:56:00,VALID,917.532,VALID,0,VALID,98.5455,VALID,0.0169808,VALID,17.7662,VALID,96,VALID,0.886719,
2001-06-25, 02:57:00,VALID,917.513,VALID,0,VALID,98.5519,VALID,0.0169808,VALID,17.7916,VALID,95,VALID,0.835737,
2001-06-25, 02:58:00,VALID,917.507,VALID,0,VALID,98.5964,VALID,0.0169808,VALID,17.8146,VALID,99,VALID,0.88762,
2001-06-25, 02:59:00,VALID,917.514,VALID,0,VALID,98.5315,VALID,0.0339617,VALID,17.8469,VALID,100,VALID,0.754366,
2001-06-25, 03:00:00,VALID,917.519,VALID,0,VALID,98.2963,VALID,0.0339617,VALID,17.8142,VALID,100,VALID,0.589433,
2001-06-25, 03:01:00,VALID,917.531,VALID,0,VALID,98.2137,VALID,0.0339617,VALID,17.7983,VALID,101,VALID,0.59016,
2001-06-25, 03:02:00,VALID,917.535,VALID,0,VALID,98.1602,VALID,0,VALID,17.7791,VALID,113,VALID,0.767144,
2001-06-25, 03:03:00,VALID,917.549,VALID,0,VALID,98.1259,VALID,0.0169808,VALID,17.7725,VALID,123,VALID,0.835286,
2001-06-25, 03:04:00,VALID,917.543,VALID,0,VALID,98.1602,VALID,0.0169808,VALID,17.7535,VALID,133,VALID,1.00555,
2001-06-25, 03:05:00,VALID,917.532,VALID,0,VALID,98.2543,VALID,0,VALID,17.7662,VALID,130,VALID,0.936022,
2001-06-25, 03:06:00,VALID,917.505,VALID,0,VALID,98.159,VALID,0,VALID,17.763,VALID,123,VALID,0.645312,
2001-06-25, 03:07:00,VALID,917.482,VALID,0,VALID,98.2225,VALID,0,VALID,17.7501,VALID,116,VALID,1.16228,
2001-06-25, 03:08:00,VALID,917.458,VALID,0,VALID,98.384,VALID,0,VALID,17.7759,VALID,114,VALID,1.34992,
2001-06-25, 03:09:00,VALID,917.451,VALID,0,VALID,98.1806,VALID,0,VALID,17.7789,VALID,112,VALID,1.06851,
2001-06-25, 03:10:00,VALID,917.445,VALID,0,VALID,98.0191,VALID,0,VALID,17.7408,VALID,108,VALID,0.773242,
2001-06-25, 03:11:00,VALID,917.451,VALID,0,VALID,97.6885,VALID,-0.0169808,VALID,17.6862,VALID,107,VALID,0.666735,
2001-06-25, 03:12:00,VALID,917.453,VALID,0,VALID,97.7622,VALID,-0.0849042,VALID,17.6289,VALID,106,VALID,0.759713,
2001-06-25, 03:13:00,VALID,917.461,VALID,0,VALID,97.7546,VALID,-0.101885,VALID,17.5997,VALID,103,VALID,0.669071,
2001-06-25, 03:14:00,VALID,917.466,VALID,0,VALID,98.0509,VALID,-0.0849042,VALID,17.5902,VALID,101,VALID,0.920272,
2001-06-25, 03:15:00,VALID,917.451,VALID,0,VALID,98.248,VALID,-0.0849042,VALID,17.6096,VALID,105,VALID,1.31771,
2001-06-25, 03:16:00,VALID,917.427,VALID,0,VALID,98.3815,VALID,-0.101885,VALID,17.6453,VALID,103,VALID,1.36808,
2001-06-25, 03:17:00,VALID,917.392,VALID,0,VALID,98.3383,VALID,-0.101885,VALID,17.6836,VALID,111,VALID,1.4166,
2001-06-25, 03:18:00,VALID,917.378,VALID,0,VALID,98.206,VALID,-0.101885,VALID,17.7159,VALID,114,VALID,1.3138,
2001-06-25, 03:19:00,VALID,917.36,VALID,0,VALID,97.8945,VALID,-0.101885,VALID,17.7224,VALID,117,VALID,1.1276,
2001-06-25, 03:20:00,VALID,917.359,VALID,0,VALID,97.705,VALID,-0.101885,VALID,17.723,VALID,114,VALID,1.13556,
2001-06-25, 03:21:00,VALID,917.363,VALID,0,VALID,97.7114,VALID,-0.0849042,VALID,17.7032,VALID,113,VALID,1.21197,
2001-06-25, 03:22:00,VALID,917.355,VALID,0,VALID,97.8156,VALID,-0.101885,VALID,17.7163,VALID,113,VALID,1.35051,
2001-06-25, 03:23:00,VALID,917.347,VALID,0,VALID,97.78,VALID,-0.101885,VALID,17.7258,VALID,118,VALID,1.47234,
2001-06-25, 03:24:00,VALID,917.352,VALID,0,VALID,97.6503,VALID,-0.101885,VALID,17.7133,VALID,120,VALID,1.49487,
2001-06-25, 03:25:00,VALID,917.333,VALID,0,VALID,97.6325,VALID,-0.118866,VALID,17.7069,VALID,120,VALID,1.35341,
2001-06-25, 03:26:00,VALID,917.332,VALID,0,VALID,97.5626,VALID,-0.0679233,VALID,17.6864,VALID,115,VALID,1.24958,
2001-06-25, 03:27:00,VALID,917.328,VALID,0,VALID,97.6046,VALID,0,VALID,17.6795,VALID,116,VALID,1.09032,
2001-06-25, 03:28:00,VALID,917.334,VALID,0,VALID,97.4443,VALID,0.0169808,VALID,17.6664,VALID,113,VALID,1.08906,
2001-06-25, 03:29:00,VALID,917.317,VALID,0,VALID,97.5829,VALID,0.0169808,VALID,17.6599,VALID,110,VALID,1.24157,
2001-06-25, 03:30:00,VALID,917.297,VALID,0,VALID,97.6643,VALID,0,VALID,17.6694,VALID,112,VALID,1.24589,